GPS IIR-4

operational
NORAD ID: 26360 Int'l Des: 2000-025 Owner: AFSMC Country: US Constellation: GPS
MEOCIRCULARGNSS

About GPS IIR-4

Description loading...

Live Position

Loading 3D Globe...

Upcoming Passes

Altitude History

Altitude vs Time

uPlot chart will show altitude changes over time

Two-Line Element Set

1 26360U 00025A 25304.95957466 -.00000070 00000-0 00000-0 0 9997
2 26360 55.0213 28.5282 0038243 238.0479 291.6831 2.00571058186693
Epoch: Oct 31, 2025 • Age: 31 hours

Current Status

Altitude 20275.0 km
Velocity 3.86 km/s
Sub-Earth Point 26.88°N, 88.45°W
Launch Date May 11, 2000
Age 25.4 years
Type navigation

Technical Details

Classification Payload
Mass 1077.00 kg
Dry Mass 910.00 kg
Total Mass 2032.00 kg
Length 1.50 m
Diameter 1.90 m
Span 19.30 m
Shape Box + 2 Pan
Manufacturer LMMS
Bus Type Series 4000
Phase Status In Orbit
Owner/State AFSMC/US

Large Constellations

Loading constellations...